This is the latest recevied weather packets stored in our database for station/object E22ZMG-4. If no packets are shown the sender has not sent any weather packets the latest 10 day(s).
| Time | Temp. | Humidity | Pressure | Rain* | Wind** | Luminosity | Snow |
|---|---|---|---|---|---|---|---|
| 1777880200 | 26.67° C | 37% | 973 hPa | - | - | 0 W/m² | - |
| 1777879576 | 26.67° C | 37% | 974 hPa | - | - | 0 W/m² | - |
| 1777878950 | 27.22° C | 37% | 974 hPa | - | - | 0 W/m² | - |
| 1777878325 | 27.22° C | 38% | 974 hPa | - | - | 0 W/m² | - |
| 1777877700 | 27.78° C | 38% | 974 hPa | - | - | 0 W/m² | - |
| 1777877075 | 27.22° C | 38% | 974 hPa | - | - | 0 W/m² | - |
| 1777876451 | 27.78° C | 39% | 975 hPa | - | - | 0 W/m² | - |
| 1777875826 | 27.78° C | 37% | 975 hPa | - | - | 0 W/m² | - |
| 1777875201 | 28.33° C | 38% | 975 hPa | - | - | 0 W/m² | - |
| 1777874577 | 28.33° C | 39% | 975 hPa | - | - | 0 W/m² | - |
| 1777873952 | 28.89° C | 39% | 976 hPa | - | - | 0 W/m² | - |
| 1777873327 | 28.89° C | 39% | 976 hPa | - | - | 0 W/m² | - |
| 1777872703 | 30° C | 41% | 976 hPa | - | - | 0 W/m² | - |
| 1777872079 | 31.11° C | 34% | 976 hPa | - | - | 0 W/m² | - |
| 1777871454 | 30.56° C | 34% | 976 hPa | - | - | 0 W/m² | - |
| 1777870830 | 29.44° C | 34% | 976 hPa | - | - | 0 W/m² | - |
| 1777870206 | 27.78° C | 35% | 976 hPa | - | - | 0 W/m² | - |
| 1777869582 | 25.56° C | 37% | 977 hPa | - | - | 0 W/m² | - |
| 1777868957 | 25.56° C | 37% | 977 hPa | - | - | 0 W/m² | - |
| 1777868333 | 25.56° C | 37% | 977 hPa | - | - | 0 W/m² | - |
| 1777867708 | 25.56° C | 37% | 977 hPa | - | - | 0 W/m² | - |
| 1777867084 | 26.11° C | 37% | 977 hPa | - | - | 0 W/m² | - |
| 1777866459 | 26.11° C | 38% | 977 hPa | - | - | 0 W/m² | - |
| 1777865835 | 26.11° C | 39% | 977 hPa | - | - | 0 W/m² | - |
| 1777865210 | 26.11° C | 38% | 977 hPa | - | - | 0 W/m² | - |
* Rain since midnight (hover to see other rain measurements)
** Current wind speed in m/s (hover to see current wind gust speed)